STARLINK-36772, 67721

Orbit data source: Space-Track

STARLINK-36772, 67721 is a payload satellite owned by SpaceX/Seattle (US) in SSO that was launched on Wed, 11 Feb 2026 UTC via an FALCON 9 launch vehicle from the Air Force Western Test Range (AFWTR). Payload-class satellites include a variety of spacecraft equipped with specific instruments for various scientific and technological missions. These include communications satellites like Starlink; space stations such as the ISS; scientific satellites like the Hubble; Earth observation satellites from companies like Planet Labs, Umbra, and HawkEye 360; GPS; miniature CubeSats for education and research; and military/defense satellites.

Loading next visibility...
Identifier
67721, 2026-026A
Orbit
SSO
Country
Flag of USUS
Related business
Manufacturer
SpaceX/Seattle
Mission
Operational Commercial Communications
Bus & Motor
STARLINK V2MO, Unknown motor
Mass
575 kg wet, ~530 kg dry
Launch date (UTC)
2026-02-11 (3 months ago)
Launch vehicle
FALCON 9
Launch site
Air Force Western Test Range (AFWTR)
Object type
Payload
Rocket body
Debris
Shape & HBR
Box + 2 Pan, 17.7 m
Radar Cross Section
36.964 m²

Expand to show TLE details & history
Last TLE update: 9 hours ago

TLE from 9 hours ago
0 STARLINK-36772
1 67721U 26026A   26130.10432443  .00020100  00000-0  62302-3 0  9991
2 67721  97.2843 183.7768 0001973  73.8208 286.3251 15.33457570 13535
Epoch: 2026-05-10T02:30Z
TLE epoch observation values (Epoch: 2026-05-10T02:30:13.630Z)
Latitude
-0.00012°
Longitude
-81.69217°
Altitude
468.238 km
Speed
7.632 km/s
True Right ascension
12h 15m 06s
True Declination
0° 00' 00"
Sunlit
Object was in full shadow at epoch
Visualization orbit readout
Latitude
Unknown
Longitude
Unknown
Altitude
Unknown
Speed
Unknown
Apparent Right ascension
Unknown
Apparent Declination
Unknown
Sunlit
N/A
Visualization observer readout
Local Sidereal Time
19:48:58
Azimuth
Unknown
Elevation
Unknown
Doppler factor
Unknown
Orbital elements
Apogee altitude
463.798 km
Perigee altitude
461.099 km
Semi-major axis
6,840.585 km
Eccentricity
0.0002
Inclination
97.2843°
RAAN
183.7768°
Arg. of periapsis
73.8208°
True anomaly
286.3034°
Mean anomaly
286.3251°
Eccentric anomaly
286.31425°
Mean motion
3.83622 °/min
Orbital period
93.84 mins
BSTAR
0.00062302
Loading maneuver chart data...
Computing Atmospheric mass density...
Loading historical data...
Loading historical data...
Loading historical data...
Loading historical data...
Loading historical data...
Loading historical data...
Loading historical data...

Documentation

Showing up to 5 results
|